Flag for Vietnam Weather past 2 weeks in Ho Chi Minh, Vietnam

Now
75 °F

Passing clouds.


Feels Like: 76 °F
Forecast: 71 / 87 °F
Wind: 2 mph from North

Location: Ho Chi Minh

Current Time: Dec 29, 2014 at 10:59:00 PM

Latest Report: Dec 29, 2014 at 10:00 PM


Visibility: N/A

Pressure: 29.89 "Hg

Humidity: 78%

Dew point: 68 °F

Location of Ho Chi MinhLocation

Historic Weather in Ho Chi Minh — Graph

°F

Ho Chi Minh temperature yesterday

Maximum temperature yesterday: 91 °F (at 12:30 PM)
Minimum temperature yesterday: 75 °F (at 4:00 AM)
Average temperature yesterday: 84 °F

Past Weeks' High & Low Weather Summary

 TemperatureHumidityPressure
High93 °F (Dec 16, 1:00 PM)94% (Dec 19, 9:30 PM)29.98 "Hg (Dec 19, 9:30 PM)
Low72 °F (Dec 18, 5:30 AM)41% (Dec 26, 1:00 PM)29.74 "Hg (Dec 21, 2:30 PM)
Average81 °F66%29.85 "Hg
* Reported Dec 14 9:00 PM — Dec 29 9:30 PM, Ho Chi Minh, Weather by CustomWeather, © 2014

Note: Actual official high and low records may vary slightly from our data, if they occured in-between our weather recording intervals... More about our weather records

Advertising

Ho Chi Minh weather history for previous 24 hours

 ConditionsComfort  
Time TempWeatherWind HumidityBarometerVisibility
9:30 PM
Dec 29
77 °FPassing clouds.3 mph74%29.89 "HgN/A
9:00 PM79 °FPassing clouds.2 mph70%29.89 "HgN/A
8:30 PM79 °FPassing clouds.3 mph70%29.89 "HgN/A
8:00 PM81 °FPassing clouds.2 mph66%29.86 "HgN/A
7:30 PM81 °FPassing clouds.5 mph66%29.86 "HgN/A
7:00 PM81 °FPassing clouds.7 mph66%29.86 "HgN/A
6:30 PM81 °FPassing clouds.8 mph66%29.83 "HgN/A
6:00 PM82 °FPassing clouds.10 mph66%29.83 "HgN/A
5:30 PM82 °FScattered clouds.9 mph66%29.80 "HgN/A
5:00 PM84 °FScattered clouds.8 mph58%29.80 "HgN/A
4:30 PM88 °FScattered clouds.1 mph46%29.80 "HgN/A
4:00 PM88 °FScattered clouds.3 mph46%29.77 "HgN/A
3:30 PM88 °FScattered clouds.3 mph43%29.77 "HgN/A
3:00 PM88 °FScattered clouds.2 mph43%29.80 "HgN/A
2:30 PM90 °FScattered clouds.2 mph41%29.80 "HgN/A
2:00 PM90 °FScattered clouds.5 mph43%29.80 "HgN/A
1:30 PM90 °FScattered clouds.2 mph43%29.83 "HgN/A
1:00 PM88 °FPassing clouds.5 mph43%29.83 "HgN/A
12:30 PM86 °FPassing clouds.5 mph49%29.86 "HgN/A
12:00 PM86 °FPassing clouds.3 mph46%29.86 "HgN/A
11:30 AM86 °FPassing clouds.7 mph49%29.89 "HgN/A
11:00 AM86 °FPassing clouds.6 mph49%29.92 "HgN/A
10:30 AM84 °FPassing clouds.3 mph51%29.92 "HgN/A
10:00 AM84 °FPassing clouds.5 mph51%29.92 "HgN/A
9:30 AM82 °FPassing clouds.2 mph55%29.95 "HgN/A
8:30 AM81 °FPassing clouds.2 mph62%29.95 "HgN/A
8:00 AM81 °FPassing clouds.2 mph58%29.92 "HgN/A
7:30 AM79 °FPassing clouds.3 mph61%29.92 "HgN/A
7:00 AM77 °FScattered clouds.2 mph69%29.89 "HgN/A
6:30 AM75 °FScattered clouds.2 mph69%29.89 "HgN/A
6:00 AM73 °FPassing clouds.3 mph74%29.86 "HgN/A
5:30 AM73 °FMild.5 mph74%29.86 "HgN/A
5:00 AM73 °FPassing clouds.2 mph74%29.83 "HgN/A
4:30 AM73 °FPassing clouds.1 mph74%29.83 "HgN/A
4:00 AM73 °FPassing clouds.2 mph74%29.83 "HgN/A
3:30 AM75 °FPassing clouds.3 mph69%29.83 "HgN/A
3:00 AM75 °FPassing clouds.3 mph69%29.83 "HgN/A
2:30 AM75 °FPassing clouds.5 mph69%29.83 "HgN/A
2:00 AM75 °FPassing clouds.3 mph69%29.86 "HgN/A
1:30 AM77 °FPassing clouds.6 mph65%29.86 "HgN/A
1:00 AM77 °FPassing clouds.5 mph65%29.86 "HgN/A
12:30 AM77 °FPassing clouds.8 mph65%29.86 "HgN/A
12:00 AM77 °FPassing clouds.6 mph65%29.89 "HgN/A
11:30 PM
Dec 28
77 °FPassing clouds.5 mph65%29.89 "HgN/A
11:00 PM79 °FPassing clouds.7 mph61%29.89 "HgN/A
10:30 PM81 °FPassing clouds.6 mph58%29.89 "HgN/A
10:00 PM81 °FPassing clouds.8 mph58%29.89 "HgN/A
Weather by CustomWeather, © 2014

See weather overviewHow to use our weather pages